Regional Weather Roundup
Issued by NWS Midland/Odessa, TX

Skip options and go directly to product.
Home | Oldest Version | Previous Version | Current Version | All | Text Only | Save Text | Print | Product List | Glossary Off

Skip product version selection by date and time.   

804
ASUS44 KMAF 260710
RWRMAF
MIDLAND AREA WEATHER ROUNDUP
NATIONAL WEATHER SERVICE MIDLAND TX
100 AM CST WED NOV 26 2014

...IN SOUTHWEST TEXAS AND SOUTHEAST NEW MEXICO...

CITY           SKY/WX    TMP DP  RH WIND       PRES   REMARKS
ALPINE         CLEAR     42   8  25 S9        30.31R WCI  37
ANDREWS        FAIR      43  13  29 W10G17    30.13S WCI  37
ARTESIA        NOT AVBL
BIG SPRING     CLEAR     41  17  37 S10       30.14S WCI  35
CARLSBAD       CLEAR     51   7  16 CALM      30.14S
DRYDEN           N/A     48  15  26 W10       30.19S
FORT STOCKTON  CLEAR     46  13  26 SW16      30.18S WCI  39
GUAD PASS      NOT AVBL
HOBBS          CLEAR     43   9  24 W13       30.12F WCI  36
MARFA          CLEAR     43   9  24 W13       30.29R WCI  36
MIDLAND AIRPK  CLEAR     46  14  27 W12       30.14S WCI  40
MIDLAND INTL   CLEAR     44  13  28 W10       30.14S WCI  39
ODESSA         CLEAR     40  11  30 W7        30.15S WCI  35
PECOS          CLEAR     47  13  24 SW14      30.17S
PRESIDIO       FAIR      40  17  38 N8        30.27S WCI  35
SEMINOLE       CLEAR     37  13  38 W9        30.11F WCI  30
SNYDER         CLEAR     38  22  53 S6        30.08F WCI  34
WINK           CLEAR     42  11  28 W6        30.14S WCI  38
$$
...OTHER STATIONS IN TEXAS...

CITY           SKY/WX    TMP DP  RH WIND       PRES   REMARKS
ABILENE        CLEAR     46  22  38 SW16      30.07F WCI  39
AMARILLO       CLEAR     43  19  38 W14       30.01S WCI  36
AUSTIN         CLEAR     43  33  68 CALM      30.19F
BROWNSVILLE    CLEAR     48  42  80 CALM      30.30F
CORPUS CHRISTI CLEAR     45  42  89 SE6       30.25F
DALLAS FTW     PTCLDY    41  30  65 S8        30.06F WCI  36
DEL RIO        CLEAR     43  32  65 NE3       30.20S
EL PASO        CLEAR     37  10  32 E8        30.28R WCI  31
HOUSTON INT    CLEAR     49  39  68 S5        30.23S
LUBBOCK        CLEAR     42  13  30 W8        30.03S WCI  37
SAN ANGELO     CLEAR     38  22  52 SW7       30.15S WCI  33
SAN ANTONIO    CLEAR     44  34  67 CALM      30.21F
WACO           CLEAR     41  34  76 SW8       30.14F WCI  36
WICHITA FALLS  NOT AVBL
$$
...OTHER LOCATIONS IN NEW MEXICO...

CITY           SKY/WX    TMP DP  RH WIND       PRES   REMARKS
ALAMAGORDO     PTCLDY    37   3  23 MISG      30.28F
ALBUQUERQUE    PTCLDY    40   8  26 N9        30.30F WCI  34
CANNON AFB     CLEAR     45  13  27 W16       30.07R WCI  38
CLOVIS         CLEAR     45  12  26 W20       30.06S WCI  37
HOLLOMAN AFB   PTCLDY    31   5  33 N6        30.28S WCI  26
ROSWELL        PTCLDY    35  16  45 VRB6      30.13F WCI  30
RUIDOSO        CLEAR     41   7  24 NW21G40   30.25S WCI  32
SANTA FE       PTCLDY    34  11  38 NW13      30.25R WCI  25
TRUTH OR CONSE CLEAR     35   8  32 NE6       30.29S WCI  30
TUCUMCARI      CLEAR     42  18  37 W14       30.04F WCI  35
$$

USA.gov is the U.S. government's official web portal to all federal, state and local government web resources and services.